GW7746 Weather Reports


time (UTC)temp
F
wind
direction
speed
knots
gust
knots
rain 1hr
in
rain 24hr
in
rain mn
in
humidity
%
barometer
mb
20260905222501 77 251 0.0 1.7 0.00 0.00 0.00 57 1010.4
20260905222001 78 360 0.0 0.0 0.00 0.00 0.00 59 1010.4
20260905221501 78 121 0.0 0.9 0.00 0.00 0.00 56 1010.4
20260905221001 78 3 0.0 0.9 0.00 0.00 0.00 56 1010.4
20260905220501 78 201 0.0 0.9 0.00 0.00 0.00 57 1010.3
20260905220001 79 199 0.0 1.7 0.00 0.00 0.00 55 1010.2
20260905215501 79 153 0.9 2.6 0.00 0.00 0.00 55 1010.3
20260905215001 79 237 1.7 6.1 0.00 0.00 0.00 54 1010.2
20260905214501 79 181 0.0 1.7 0.00 0.00 0.00 54 1010.3
20260905214001 79 198 0.0 1.7 0.00 0.00 0.00 53 1010.4
20260905213501 79 201 0.0 1.7 0.00 0.00 0.00 54 1010.2
20260905213001 79 267 0.0 0.9 0.00 0.00 0.00 53 1010.1
20260905212501 80 358 0.0 0.9 0.00 0.00 0.00 52 1010.1
20260905212002 80 230 0.0 1.7 0.00 0.00 0.00 52 1010.1
20260905211502 80 113 0.0 0.0 0.00 0.00 0.00 51 1010.0
20260905211002 79 182 0.9 2.6 0.00 0.00 0.00 52 1010.0
20260905210501 80 197 0.9 1.7 0.00 0.00 0.00 52 1009.9
20260905210002 80 164 0.0 0.9 0.00 0.00 0.00 50 1009.9
20260905205501 80 71 0.9 3.5 0.00 0.00 0.00 52 1009.9
20260905205001 80 153 0.0 0.9 0.00 0.00 0.00 54 1009.9
20260905204502 81 204 0.9 1.7 0.00 0.00 0.00 53 1009.8
20260905204001 81 231 0.0 1.7 0.00 0.00 0.00 51 1009.7
20260905203501 80 184 0.9 1.7 0.00 0.00 0.00 52 1009.6
20260905203001 80 178 0.0 1.7 0.00 0.00 0.00 55 1009.6
20260905202501 80 178 0.0 0.9 0.00 0.00 0.00 52 1009.7
20260905202001 80 132 0.0 0.9 0.00 0.00 0.00 52 1009.6
20260905201501 79 215 0.9 3.5 0.00 0.00 0.00 53 1009.7
20260905201001 80 192 1.7 2.6 0.00 0.00 0.00 55 1009.7
20260905200501 80 191 0.9 1.7 0.00 0.00 0.00 52 1009.8
20260905200001 80 153 0.0 0.9 0.00 0.00 0.00 52 1009.8
20260905195501 80 168 0.9 2.6 0.00 0.00 0.00 53 1009.7
20260905195001 80 190 0.9 1.7 0.00 0.00 0.00 55 1009.6
20260905194501 80 179 0.0 1.7 0.00 0.00 0.00 52 1009.7
20260905194001 80 140 0.0 1.7 0.00 0.00 0.00 52 1009.7
20260905193501 79 175 0.9 3.5 0.00 0.00 0.00 53 1009.7
20260905193001 80 183 0.0 1.7 0.00 0.00 0.00 54 1009.7
20260905192501 81 191 0.9 3.5 0.00 0.00 0.00 52 1009.8
20260905192002 80 201 0.9 3.5 0.00 0.00 0.00 51 1009.7
20260905191501 80 193 1.7 4.3 0.00 0.00 0.00 53 1009.7
20260905191001 80 229 0.0 1.7 0.00 0.00 0.00 53 1009.8
20260905190503 80 167 0.0 1.7 0.00 0.00 0.00 52 1009.9
20260905190002 80 176 0.9 3.5 0.00 0.00 0.00 53 1009.9
20260905185501 80 132 0.0 1.7 0.00 0.00 0.00 53 1009.8
20260905185001 80 156 0.0 0.9 0.00 0.00 0.00 52 1009.8
20260905184501 80 214 0.0 0.9 0.00 0.00 0.00 53 1009.9
20260905184001 79 204 1.7 3.5 0.00 0.00 0.00 52 1009.9
20260905183502 79 190 0.9 3.5 0.00 0.00 0.00 53 1010.0
20260905183001 79 206 0.0 1.7 0.00 0.00 0.00 56 1010.0
20260905182501 80 26 0.9 2.6 0.00 0.00 0.00 53 1010.0
20260905182002 79 229 1.7 3.5 0.00 0.00 0.00 52 1010.0
20260905181501 78 224 0.9 1.7 0.00 0.00 0.00 56 1010.1
20260905181001 79 196 0.9 1.7 0.00 0.00 0.00 55 1010.2
20260905180501 80 360 0.0 0.0 0.00 0.00 0.00 54 1010.2
20260905180001 80 136 0.9 1.7 0.00 0.00 0.00 54 1010.2
20260905175501 80 37 0.0 1.7 0.00 0.00 0.00 53 1010.2
20260905175001 80 198 0.9 1.7 0.00 0.00 0.00 52 1010.3
20260905174501 80 186 0.9 1.7 0.00 0.00 0.00 54 1010.3
20260905174001 80 226 0.0 1.7 0.00 0.00 0.00 54 1010.4
20260905173502 80 189 0.9 3.5 0.00 0.00 0.00 53 1010.3
20260905173001 80 147 0.9 1.7 0.00 0.00 0.00 53 1010.3
20260905172501 80 217 0.9 3.5 0.00 0.00 0.00 53 1010.4
20260905172001 79 200 0.9 3.5 0.00 0.00 0.00 55 1010.4
20260905171501 79 245 0.0 1.7 0.00 0.00 0.00 56 1010.5
20260905171002 80 206 0.9 1.7 0.00 0.00 0.00 56 1010.5
20260905170501 80 146 0.9 1.7 0.00 0.00 0.00 53 1010.4
20260905170001 79 179 1.7 6.1 0.00 0.00 0.00 55 1010.5
20260905165502 79 151 0.0 0.9 0.00 0.00 0.00 55 1010.5
20260905165002 80 166 0.0 0.9 0.00 0.00 0.00 56 1010.6
20260905164502 80 192 0.0 1.7 0.00 0.00 0.00 55 1010.6
20260905164001 80 179 0.9 1.7 0.00 0.00 0.00 56 1010.6
20260905163501 80 195 0.0 1.7 0.00 0.00 0.00 54 1010.6
20260905163001 80 194 0.9 3.5 0.00 0.00 0.00 56 1010.6
20260905162501 80 68 0.0 1.7 0.00 0.00 0.00 54 1010.5
20260905162001 79 199 0.9 3.5 0.00 0.00 0.00 57 1010.6
20260905161502 79 155 0.9 1.7 0.00 0.00 0.00 58 1010.5
20260905161001 79 184 0.9 1.7 0.00 0.00 0.00 57 1010.6
20260905160502 80 213 0.0 1.7 0.00 0.00 0.00 55 1010.5
20260905160002 80 203 1.7 4.3 0.00 0.00 0.00 55 1010.5
20260905155501 80 238 0.0 1.7 0.00 0.00 0.00 53 1010.7
20260905155001 80 170 1.7 3.5 0.00 0.00 0.00 54 1010.5
20260905154501 81 189 0.9 2.6 0.00 0.00 0.00 52 1010.7
20260905154001 80 191 0.9 1.7 0.00 0.00 0.00 53 1010.6
20260905153501 80 207 0.9 2.6 0.00 0.00 0.00 55 1010.5
20260905153002 80 215 0.9 3.5 0.00 0.00 0.00 55 1010.6
20260905152501 80 202 0.9 2.6 0.00 0.00 0.00 54 1010.6
20260905152001 79 164 1.7 2.6 0.00 0.00 0.00 56 1010.6
20260905151501 79 184 0.9 3.5 0.00 0.00 0.00 58 1010.6
20260905151001 78 168 0.0 1.7 0.00 0.00 0.00 58 1010.6
20260905150503 77 191 0.9 1.7 0.00 0.00 0.00 60 1010.7
20260905150004 77 192 0.9 1.7 0.00 0.00 0.00 61 1010.7
20260905145501 77 171 0.9 2.6 0.00 0.00 0.00 60 1010.7
20260905145002 77 178 0.9 3.5 0.00 0.00 0.00 61 1010.6
20260905144501 77 197 0.9 1.7 0.00 0.00 0.00 62 1010.6
20260905144002 78 209 0.0 0.0 0.00 0.00 0.00 62 1010.6
20260905143505 78 276 0.9 1.7 0.00 0.00 0.00 61 1010.6
20260905143001 78 174 0.9 1.7 0.00 0.00 0.00 61 1010.7
20260905142500 79 196 0.0 1.7 0.00 0.00 0.00 58 1010.7
20260905142001 78 297 0.9 1.7 0.00 0.00 0.00 59 1010.7
20260905141501 78 275 0.0 1.7 0.00 0.00 0.00 60 1010.6
20260905141001 77 244 0.0 0.9 0.00 0.00 0.00 63 1010.6
20260905140501 76 218 0.0 0.9 0.00 0.00 0.00 64 1010.5
20260905140001 75 306 0.0 0.9 0.00 0.00 0.00 66 1010.6
20260905135501 74 130 0.9 0.9 0.00 0.00 0.00 66 1010.6
20260905135001 73 183 0.9 1.7 0.00 0.00 0.00 68 1010.6
20260905134502 73 360 0.0 0.0 0.00 0.00 0.00 69 1010.6
20260905134001 73 200 0.0 0.0 0.00 0.00 0.00 69 1010.6
20260905133501 72 210 0.9 0.9 0.00 0.00 0.00 70 1010.7
20260905133001 72 187 0.9 1.7 0.00 0.00 0.00 71 1010.6
20260905132501 71 360 0.0 0.0 0.00 0.00 0.00 72 1010.7
20260905132001 71 360 0.0 0.0 0.00 0.00 0.00 74 1010.7
20260905131504 71 99 0.9 1.7 0.00 0.00 0.00 74 1010.7
20260905131001 71 360 0.0 0.0 0.00 0.00 0.00 73 1010.7
20260905130501 71 360 0.0 0.0 0.00 0.00 0.00 74 1010.8
20260905130001 70 240 0.0 0.0 0.00 0.00 0.00 74 1010.8
20260905125501 70 340 0.9 1.7 0.00 0.00 0.00 76 1010.9
20260905125002 69 127 0.0 0.0 0.00 0.00 0.00 77 1010.8
20260905124501 69 207 0.0 0.0 0.00 0.00 0.00 77 1010.9
20260905124001 69 214 0.9 0.9 0.00 0.00 0.00 76 1010.9
20260905123501 69 164 0.0 0.9 0.00 0.00 0.00 76 1010.9
20260905123002 69 141 0.0 0.9 0.00 0.00 0.00 76 1010.9
20260905122501 68 106 0.0 0.0 0.00 0.00 0.00 77 1011.0
20260905122001 68 134 0.0 0.0 0.00 0.00 0.00 78 1011.1
20260905121501 68 284 0.9 0.9 0.00 0.00 0.00 79 1011.1
20260905121001 67 139 0.0 0.9 0.00 0.00 0.00 79 1011.0
20260905120502 67 162 0.9 0.9 0.00 0.00 0.00 80 1010.9
20260905120001 67 100 0.0 0.9 0.00 0.00 0.00 80 1010.9
20260905115501 66 92 0.9 1.7 0.00 0.00 0.00 83 1010.9
20260905115001 66 120 0.0 0.0 0.00 0.00 0.00 83 1010.9
20260905114502 65 360 0.0 0.0 0.00 0.00 0.00 83 1010.7
20260905114003 65 360 0.0 0.0 0.00 0.00 0.00 83 1010.6
20260905113501 65 314 0.0 1.7 0.00 0.00 0.00 83 1010.6
20260905113003 65 316 0.0 0.9 0.00 0.00 0.00 84 1010.5
20260905112501 64 334 0.0 0.0 0.00 0.00 0.00 85 1010.5
20260905112001 64 172 0.0 0.9 0.00 0.00 0.00 86 1010.4
20260905111501 64 289 0.0 0.9 0.00 0.00 0.00 86 1010.3
20260905111001 64 9 0.9 1.7 0.00 0.00 0.00 86 1010.2
20260905110502 64 156 0.0 0.0 0.00 0.00 0.00 86 1010.2
20260905110001 64 360 0.0 0.0 0.00 0.00 0.00 86 1010.1
20260905105503 64 147 0.0 0.9 0.00 0.00 0.00 86 1010.1
20260905105001 63 25 1.7 1.7 0.00 0.00 0.00 86 1010.1
20260905104501 63 360 0.0 0.0 0.00 0.00 0.00 86 1010.0
20260905104002 64 31 0.0 0.0 0.00 0.00 0.00 86 1010.0
20260905103501 64 213 0.0 0.9 0.00 0.00 0.00 85 1010.0
20260905103002 64 360 0.0 0.0 0.00 0.00 0.00 85 1010.0
20260905102501 64 201 0.0 0.0 0.00 0.00 0.00 85 1010.0
20260905102001 64 90 0.9 1.7 0.00 0.00 0.00 85 1010.0
20260905101501 64 54 0.0 0.9 0.00 0.00 0.00 85 1009.9
20260905101001 64 360 0.0 0.0 0.00 0.00 0.00 84 1009.9
20260905100510 64 330 0.0 0.0 0.00 0.00 0.00 83 1009.9
20260905100001 65 347 0.0 0.9 0.00 0.00 0.00 83 1009.9
20260905095501 65 238 0.0 1.7 0.00 0.00 0.00 83 1009.8
20260905095001 65 353 0.0 0.0 0.00 0.00 0.00 83 1009.8
20260905094501 65 360 0.0 0.0 0.00 0.00 0.00 83 1009.7
20260905094002 65 188 0.0 0.9 0.00 0.00 0.00 82 1009.7
20260905093501 66 21 0.0 1.7 0.00 0.00 0.00 81 1009.7
20260905093002 66 360 0.0 0.0 0.00 0.00 0.00 80 1009.7
20260905092501 66 360 0.0 0.0 0.00 0.00 0.00 80 1009.7
20260905092001 66 286 0.0 0.0 0.00 0.00 0.00 80 1009.7
20260905091501 66 360 0.0 0.0 0.00 0.00 0.00 79 1009.7
20260905091001 67 117 0.9 0.9 0.00 0.00 0.00 79 1009.7
20260905090501 67 229 0.0 0.9 0.00 0.00 0.00 78 1009.7
20260905090001 67 360 0.0 0.0 0.00 0.00 0.00 78 1009.7
20260905085501 68 285 0.0 0.9 0.00 0.00 0.00 77 1009.7
20260905085002 68 147 0.0 0.0 0.00 0.00 0.00 76 1009.7
20260905084501 68 360 0.0 0.0 0.00 0.00 0.00 76 1009.7
20260905084001 68 360 0.0 0.0 0.00 0.00 0.00 76 1009.7
20260905083501 69 138 0.0 0.9 0.00 0.00 0.00 75 1009.8
20260905083002 69 360 0.0 0.0 0.00 0.00 0.00 75 1009.8
20260905082502 69 129 0.0 0.0 0.00 0.00 0.00 75 1009.7
20260905082001 69 145 0.0 0.0 0.00 0.00 0.00 75 1009.7
20260905081502 69 159 0.0 0.0 0.00 0.00 0.00 74 1009.7
20260905081003 69 15 0.9 0.9 0.00 0.00 0.00 74 1009.8
20260905080501 69 360 0.0 0.0 0.00 0.00 0.00 74 1009.7
20260905080003 69 360 0.0 0.0 0.00 0.00 0.00 73 1009.8
20260905075502 70 360 0.0 0.0 0.00 0.00 0.00 73 1009.7
20260905075002 70 360 0.0 0.0 0.00 0.00 0.00 73 1009.7
20260905074503 70 360 0.0 0.0 0.00 0.00 0.00 73 1009.7
20260905074001 70 340 0.0 0.0 0.00 0.00 0.00 73 1009.7
20260905073501 69 67 0.0 0.9 0.00 0.00 0.00 74 1009.6
20260905073001 69 360 0.0 0.0 0.00 0.00 0.00 74 1009.6
20260905072501 69 154 0.9 0.9 0.00 0.00 0.00 74 1009.6
20260905072001 69 360 0.0 0.0 0.00 0.00 0.00 75 1009.7
20260905071501 69 360 0.0 0.0 0.00 0.00 0.00 75 1009.7
20260905071001 69 76 0.0 0.0 0.00 0.00 0.00 75 1009.7
20260905070503 69 176 0.9 0.9 0.00 0.00 0.00 77 1009.8
20260905070002 69 178 0.0 0.0 0.00 0.00 0.00 77 1009.8
20260905065501 69 229 0.0 0.0 0.00 0.00 0.00 77 1009.9
20260905065001 69 192 0.9 0.9 0.00 0.00 0.00 77 1009.9
20260905064501 69 360 0.0 0.0 0.00 0.00 0.00 77 1009.9
20260905064001 69 360 0.0 0.0 0.00 0.00 0.00 78 1010.0
20260905063501 69 114 0.9 2.6 0.00 0.00 0.00 79 1010.0
20260905063002 69 360 0.0 0.0 0.00 0.00 0.00 80 1010.1
20260905062501 69 60 0.9 0.9 0.00 0.00 0.00 81 1010.1
20260905062001 69 360 0.0 0.0 0.00 0.00 0.00 82 1010.0
20260905061501 69 201 0.0 0.0 0.00 0.00 0.00 82 1010.1
20260905061001 69 160 0.0 0.0 0.00 0.00 0.00 82 1010.1
20260905060501 69 272 0.0 0.9 0.00 0.00 0.00 82 1010.1
20260905060001 69 360 0.0 0.0 0.00 0.00 0.00 82 1010.2
20260905055502 70 360 0.0 0.0 0.00 0.00 0.00 82 1010.2
20260905055001 70 360 0.0 0.0 0.00 0.00 0.00 82 1010.3
20260905054501 70 360 0.0 0.0 0.00 0.00 0.00 82 1010.3
20260905054001 70 360 0.0 0.0 0.00 0.00 0.00 82 1010.4
20260905053501 70 360 0.0 0.0 0.00 0.00 0.00 82 1010.5
20260905053001 70 133 0.0 0.0 0.00 0.00 0.00 82 1010.4
20260905052501 70 220 0.0 0.0 0.00 0.00 0.00 82 1010.5
20260905052001 70 360 0.0 0.0 0.00 0.00 0.00 82 1010.4
20260905051501 70 360 0.0 0.0 0.00 0.00 0.00 82 1010.4
20260905051001 70 360 0.0 0.0 0.00 0.00 0.00 81 1010.5
20260905050500 70 360 0.0 0.0 0.00 0.00 0.00 81 1010.6
20260905050001 70 91 0.0 0.0 0.00 0.00 0.00 82 1010.6
20260905045501 70 360 0.0 0.0 0.00 0.00 0.00 82 1010.6
20260905045003 70 170 0.0 0.0 0.00 0.00 0.00 83 1010.6
20260905044502 70 360 0.0 0.0 0.00 0.00 0.00 83 1010.6
20260905044002 70 116 0.0 0.0 0.00 0.00 0.00 83 1010.7
20260905043501 70 360 0.0 0.0 0.00 0.00 0.00 83 1010.8
20260905043002 70 360 0.0 0.0 0.00 0.00 0.00 83 1010.8
20260905042501 71 360 0.0 0.0 0.00 0.00 0.00 83 1010.8
20260905042001 70 360 0.0 0.0 0.00 0.00 0.00 83 1010.8
20260905041501 70 330 0.0 0.9 0.00 0.00 0.00 83 1010.8
20260905041001 71 360 0.0 0.0 0.00 0.00 0.00 83 1010.8
20260905040501 71 360 0.0 0.0 0.00 0.00 0.00 83 1010.8
20260905040001 71 360 0.0 0.0 0.00 0.00 0.02 82 1010.8
20260905035501 71 360 0.0 0.0 0.00 0.00 0.02 82 1010.9
20260905035002 70 360 0.0 0.0 0.00 0.00 0.02 83 1010.9
20260905034501 70 360 0.0 0.0 0.00 0.00 0.02 84 1010.9
20260905034001 70 360 0.0 0.0 0.00 0.00 0.02 84 1010.9
20260905033501 70 360 0.0 0.0 0.00 0.00 0.02 84 1010.9
20260905033002 70 174 0.0 0.0 0.00 0.00 0.02 85 1010.8
20260905032501 70 128 0.0 0.0 0.00 0.00 0.02 85 1010.9
20260905032001 70 34 0.0 0.9 0.00 0.00 0.02 85 1010.8
20260905031504 70 138 0.0 0.0 0.00 0.00 0.02 85 1010.9
20260905031001 70 359 0.0 0.9 0.00 0.00 0.02 85 1010.9
20260905030501 70 105 0.9 0.9 0.00 0.00 0.02 85 1010.8
20260905030001 70 107 0.0 0.0 0.00 0.00 0.02 85 1010.7
20260905025501 70 360 0.0 0.0 0.00 0.00 0.02 86 1010.7
20260905025001 70 237 0.0 0.0 0.00 0.00 0.02 85 1010.7
20260905024501 70 360 0.0 0.0 0.00 0.00 0.02 86 1010.7
20260905024001 70 95 0.0 0.9 0.00 0.00 0.02 86 1010.6
20260905023501 70 147 0.0 0.9 0.00 0.00 0.02 86 1010.6
20260905023001 70 360 0.0 0.0 0.00 0.00 0.02 86 1010.6
20260905022502 70 210 0.0 0.9 0.00 0.00 0.02 86 1010.5
20260905022001 70 360 0.0 0.0 0.00 0.00 0.02 86 1010.6
20260905021502 71 127 0.0 0.9 0.00 0.00 0.02 86 1010.6
20260905021002 71 360 0.0 0.0 0.00 0.00 0.02 85 1010.7
20260905020502 71 360 0.0 0.0 0.00 0.00 0.02 85 1010.8
20260905020001 71 65 0.0 0.0 0.00 0.00 0.02 85 1010.8
20260905015502 71 360 0.0 0.0 0.00 0.00 0.02 85 1010.7
20260905015001 71 360 0.0 0.0 0.00 0.00 0.02 84 1010.7
20260905014501 71 360 0.0 0.0 0.00 0.00 0.02 84 1010.7
20260905014002 71 237 0.0 0.9 0.00 0.00 0.02 83 1010.6
20260905013502 71 360 0.0 0.0 0.00 0.00 0.02 83 1010.7
20260905013001 72 360 0.0 0.0 0.00 0.00 0.02 82 1010.6
20260905012502 72 360 0.0 0.0 0.00 0.00 0.02 82 1010.6
20260905012003 72 360 0.0 0.0 0.00 0.00 0.02 82 1010.7
20260905011502 72 67 0.0 0.9 0.00 0.00 0.02 82 1010.8
20260905011001 72 320 0.0 0.0 0.00 0.00 0.02 81 1010.7
20260905010501 72 360 0.0 0.0 0.00 0.00 0.02 81 1010.8
20260905010001 73 208 0.0 0.0 0.00 0.00 0.02 81 1010.9
20260905005501 73 360 0.0 0.0 0.00 0.00 0.02 81 1010.9
20260905005001 73 360 0.0 0.0 0.00 0.00 0.02 80 1010.7
20260905004501 73 360 0.0 0.0 0.00 0.00 0.02 80 1010.6
20260905004002 73 360 0.0 0.0 0.00 0.00 0.02 79 1010.7
20260905003501 74 114 0.0 0.0 0.00 0.00 0.02 79 1010.6
20260905003001 74 360 0.0 0.0 0.00 0.00 0.02 78 1010.6
20260905002501 74 45 0.0 0.0 0.00 0.00 0.02 77 1010.6
20260905002001 74 360 0.0 0.0 0.00 0.00 0.02 76 1010.6
20260905001503 75 152 0.0 0.0 0.00 0.00 0.02 75 1010.5
20260905001001 75 360 0.0 0.0 0.00 0.00 0.02 75 1010.5
20260905000501 75 360 0.0 0.0 0.00 0.00 0.02 74 1010.5
20260905000004 76 360 0.0 0.0 0.00 0.00 0.02 74 1010.5
20260904235501 76 360 0.0 0.0 0.00 0.00 0.02 73 1010.5
20260904235001 76 360 0.0 0.0 0.00 0.00 0.02 72 1010.5
20260904234501 77 236 0.0 0.0 0.00 0.00 0.02 71 1010.4
20260904234002 77 188 0.0 0.0 0.00 0.00 0.02 71 1010.4
20260904233501 77 360 0.0 0.0 0.00 0.00 0.02 70 1010.3
20260904233001 78 187 0.0 0.9 0.00 0.00 0.02 68 1010.4
20260904232501 78 360 0.0 0.0 0.00 0.00 0.02 68 1010.4
20260904232001 79 272 0.0 0.9 0.00 0.00 0.02 67 1010.2
20260904231501 79 263 0.0 0.0 0.00 0.00 0.02 66 1010.2
20260904231003 79 360 0.0 0.0 0.00 0.00 0.02 65 1010.2
20260904230501 80 360 0.0 0.0 0.00 0.00 0.02 63 1010.1
20260904230002 80 360 0.0 0.0 0.00 0.00 0.02 62 1010.2
20260904225501 80 260 0.0 0.0 0.00 0.00 0.02 61 1010.2
20260904225001 81 105 0.9 0.9 0.00 0.00 0.02 61 1010.3
20260904224502 81 360 0.0 0.0 0.00 0.00 0.02 60 1010.3
20260904224003 82 360 0.0 0.0 0.00 0.00 0.02 60 1010.3
20260904223501 82 360 0.0 0.0 0.00 0.00 0.02 59 1010.3
20260904223001 82 223 0.0 0.0 0.00 0.00 0.02 55 1010.3